Weather History for KJYR - September, 2012

Change the Weather History Date:

Saturday, September 1, 2012

  Actual Average (KGRI) Record (KGRI)
Temperature  
Mean Temperature 76 °F 71 °F  
Max Temperature 91 °F 83 °F 106 °F (1922)
Min Temperature 60 °F 59 °F 43 °F (1956)
Degree Days  
Heating Degree Days 0 1  
Month to date heating degree days 1  
Since 1 July heating degree days 11  
Cooling Degree Days 10 7  
Month to date cooling degree days 7  
Year to date cooling degree days 921  
Growing Degree Days 26 (Base 50)    
Moisture  
Dew Point 63 °F    
Average Humidity 69    
Maximum Humidity 100    
Minimum Humidity 31    
Precipitation  
Precipitation 0.00 in 0.09 in 5.62 in (1977)
Month to date precipitation 0.09  
Year to date precipitation 20.86  
Snow  
Snow 0.00 in 0.00 in - ()
Month to date snowfall 0.0  
Since 1 July snowfall 0.0  
Since 1 September snowfall 0.0  
Snow Depth -    
Sea Level Pressure  
Sea Level Pressure 30.03 in    
Wind  
Wind Speed 3 mph (ESE)    
Max Wind Speed 8 mph    
Max Gust Speed -    
Visibility 8 miles    
Events Fog , Rain    
T = Trace of Precipitation, MM = Missing Value Source: NWS Daily Summary

Daily Weather History Graph

Daily Weather History Graph

Search for Another Location

Airport or City:

Trip Planner

Search our weather history database for the weather conditions in past years. The results will help you decide how hot, cold, wet, or windy it might be!

Date:

Astronomy

Sep. 01, 2012 Rise Set
Actual Time 6:57 AM CDT 8:02 PM CDT
Civil Twilight 6:29 AM CDT 8:30 PM CDT
Nautical Twilight 5:56 AM CDT 9:03 PM CDT
Astronomical Twilight 5:20 AM CDT 9:38 PM CDT
Moon 8:18 PM CDT (9/1) 8:07 AM CDT (9/1)
Length of Visible Light 14h 00m
Length of Day
13h 04m
Full, 99% of the Moon is Illuminated
Sep 1
Full
Sep 8
Last Quarter
Sep 15
New
Sep 22
First Quarter
Sep 29
Full

Hourly Weather History & Observations

Time (CDT) Temp. Heat Index Dew Point Humidity Pressure Visibility Wind Dir Wind Speed Gust Speed Precip Events Conditions
12:15 AM 71.6 °F - 68.0 °F 88% 30.04 in 10.0 mi South 4.6 mph - N/A   Clear
12:35 AM 69.8 °F - 68.0 °F 94% 30.04 in 10.0 mi South 4.6 mph - N/A   Clear
12:55 AM 69.8 °F - 68.0 °F 94% 30.04 in 10.0 mi SSE 3.5 mph - N/A   Clear
1:15 AM 69.8 °F - 68.0 °F 94% 30.04 in 10.0 mi South 3.5 mph - N/A   Clear
1:35 AM 68.0 °F - 68.0 °F 100% 30.04 in 10.0 mi Calm Calm - N/A   Clear
1:55 AM 68.0 °F - 68.0 °F 100% 30.04 in 10.0 mi Calm Calm - N/A   Clear
2:15 AM 66.2 °F - 66.2 °F 100% 30.04 in 10.0 mi Calm Calm - N/A   Clear
2:35 AM 64.4 °F - 64.4 °F 100% 30.03 in 10.0 mi Calm Calm - N/A   Clear
2:55 AM 64.4 °F - 64.4 °F 100% 30.03 in 10.0 mi Calm Calm - N/A   Clear
3:35 AM 64.4 °F - 64.4 °F 100% 30.04 in 1.2 mi Calm Calm - N/A   Clear
3:55 AM 64.4 °F - 64.4 °F 100% 30.04 in 1.0 mi Calm Calm - N/A   Clear
4:15 AM 62.6 °F - 62.6 °F 100% 30.04 in 7.0 mi Calm Calm - N/A   Clear
4:55 AM 62.6 °F - 62.6 °F 100% 30.04 in 5.0 mi Calm Calm - N/A   Clear
5:15 AM 62.6 °F - 62.6 °F 100% 30.04 in 5.0 mi Calm Calm - N/A   Clear
5:35 AM 62.6 °F - 62.6 °F 100% 30.04 in 4.0 mi Calm Calm - N/A   Clear
5:55 AM 62.6 °F - 62.6 °F 100% 30.05 in 4.0 mi Calm Calm - N/A   Clear
6:15 AM 62.6 °F - 62.6 °F 100% 30.05 in 8.0 mi Calm Calm - N/A   Clear
6:35 AM 62.6 °F - 62.6 °F 100% 30.05 in 5.0 mi Calm Calm - N/A   Clear
6:55 AM 62.6 °F - 62.6 °F 100% 30.06 in 1.0 mi Calm Calm - N/A   Clear
7:15 AM 60.8 °F - 60.8 °F 100% 30.06 in 0.5 mi Calm Calm - N/A Fog Fog
7:35 AM 60.8 °F - 60.8 °F 100% 30.07 in 0.2 mi Calm Calm - N/A Fog Fog
7:55 AM 62.6 °F - 62.6 °F 100% 30.07 in 4.0 mi Calm Calm - N/A   Clear
8:15 AM 64.4 °F - 64.4 °F 100% 30.07 in 7.0 mi Calm Calm - N/A   Clear
8:35 AM 68.0 °F - 68.0 °F 100% 30.07 in 9.0 mi Calm Calm - N/A   Clear
8:55 AM 71.6 °F - 71.6 °F 100% 30.08 in 10.0 mi Calm Calm - N/A   Clear
9:15 AM 73.4 °F - 73.4 °F 100% 30.08 in 5.0 mi Calm Calm - N/A   Clear
9:35 AM 77.0 °F - 71.6 °F 83% 30.08 in 10.0 mi Calm Calm - N/A   Clear
9:55 AM 78.8 °F - 66.2 °F 65% 30.08 in 10.0 mi SE 4.6 mph - N/A   Clear
10:15 AM 80.6 °F 82.7 °F 66.2 °F 61% 30.08 in 6.0 mi ESE 5.8 mph - N/A   Haze
10:35 AM 80.6 °F 82.7 °F 66.2 °F 61% 30.08 in 10.0 mi SE 4.6 mph - N/A   Clear
10:55 AM 82.4 °F 83.9 °F 64.4 °F 54% 30.08 in 10.0 mi SE 6.9 mph - N/A   Clear
11:15 AM 82.4 °F 83.9 °F 64.4 °F 54% 30.07 in 10.0 mi ESE 6.9 mph - N/A   Clear
11:55 AM 84.2 °F 85.6 °F 64.4 °F 51% 30.07 in 10.0 mi SE 5.8 mph - N/A   Clear
12:15 PM 84.2 °F 85.6 °F 64.4 °F 51% 30.06 in 10.0 mi East 6.9 mph - N/A Rain Light Rain
12:35 PM 84.2 °F 85.6 °F 64.4 °F 51% 30.06 in 10.0 mi East 4.6 mph - N/A   Clear
12:55 PM 86.0 °F 87.3 °F 64.4 °F 48% 30.05 in 10.0 mi ESE 3.5 mph - N/A   Clear
1:15 PM 86.0 °F 86.6 °F 62.6 °F 45% 30.05 in 10.0 mi East 3.5 mph - N/A   Clear
1:55 PM 89.6 °F 89.5 °F 60.8 °F 38% 30.03 in 10.0 mi NNW 3.5 mph - N/A   Clear
2:15 PM 89.6 °F 88.9 °F 59.0 °F 36% 30.03 in 10.0 mi East 4.6 mph - N/A   Clear
2:35 PM 89.6 °F 88.9 °F 59.0 °F 36% 30.02 in 10.0 mi NNE 4.6 mph - N/A   Clear
2:55 PM 91.4 °F 90.7 °F 59.0 °F 34% 30.02 in 10.0 mi NE 6.9 mph - N/A   Clear
3:15 PM 91.4 °F 89.9 °F 57.2 °F 31% 30.01 in 10.0 mi NNE 5.8 mph - N/A   Clear
3:35 PM 91.4 °F 90.7 °F 59.0 °F 34% 30.00 in 10.0 mi Calm Calm - N/A   Clear
3:55 PM 91.4 °F 90.7 °F 59.0 °F 34% 29.99 in 10.0 mi SSE 6.9 mph - N/A   Clear
4:15 PM 91.4 °F 90.7 °F 59.0 °F 34% 29.99 in 10.0 mi North 4.6 mph - N/A   Clear
4:35 PM 91.4 °F 90.7 °F 59.0 °F 34% 29.98 in 10.0 mi Calm Calm - N/A   Clear
4:55 PM 91.4 °F 90.7 °F 59.0 °F 34% 29.98 in 10.0 mi Calm Calm - N/A   Clear
5:15 PM 91.4 °F 90.7 °F 59.0 °F 34% 29.97 in 10.0 mi SE 4.6 mph - N/A   Clear
5:35 PM 91.4 °F 89.9 °F 57.2 °F 31% 29.97 in 10.0 mi ESE 4.6 mph - N/A   Clear
5:55 PM 91.4 °F 89.9 °F 57.2 °F 31% 29.97 in 10.0 mi ESE 6.9 mph - N/A   Clear
6:15 PM 91.4 °F 89.9 °F 57.2 °F 31% 29.97 in 10.0 mi ESE 6.9 mph - N/A   Clear
6:35 PM 91.4 °F 89.9 °F 57.2 °F 31% 29.97 in 10.0 mi East 5.8 mph - N/A   Clear
6:55 PM 89.6 °F 88.9 °F 59.0 °F 36% 29.96 in 10.0 mi ESE 6.9 mph - N/A   Clear
7:15 PM 89.6 °F 90.1 °F 62.6 °F 40% 29.96 in 10.0 mi Calm Calm - N/A   Clear
7:35 PM 86.0 °F 86.6 °F 62.6 °F 45% 29.96 in 10.0 mi Calm Calm - N/A   Clear
7:55 PM 86.0 °F 86.6 °F 62.6 °F 45% 29.96 in 10.0 mi Calm Calm - N/A   Clear
8:15 PM 82.4 °F 83.9 °F 64.4 °F 54% 29.96 in 10.0 mi East 5.8 mph - N/A   Clear
8:55 PM 77.0 °F - 64.4 °F 65% 29.97 in 10.0 mi SE 5.8 mph - N/A   Clear
9:15 PM 77.0 °F - 64.4 °F 65% 29.98 in 10.0 mi SE 4.6 mph - N/A   Clear
9:35 PM 77.0 °F - 64.4 °F 65% 29.98 in 10.0 mi ESE 5.8 mph - N/A   Clear
9:55 PM 75.2 °F - 64.4 °F 69% 29.99 in 10.0 mi Calm Calm - N/A   Clear
10:15 PM 75.2 °F - 64.4 °F 69% 29.99 in 10.0 mi ESE 6.9 mph - N/A   Clear
10:55 PM 77.0 °F - 62.6 °F 61% 29.99 in 10.0 mi SSE 8.1 mph - N/A   Clear
11:15 PM 75.2 °F - 64.4 °F 69% 29.99 in 10.0 mi SSE 8.1 mph - N/A   Clear
11:55 PM 73.4 °F - 64.4 °F 73% 30.00 in 10.0 mi SSE 8.1 mph - N/A   Clear